Wind_Speed
4 3 2 1 2 2 1 2 2 2 2 2 1 1 1 1 2 2 1 1 1 2 2 3 3 4 4 4 4 4 5 5 6 7 7 7 6 7 7 8 8 8 8
4 3 2 2 1 1 1 1 1 2 2 2 2 2 2 2 2 3 2 2 3 3 3 3 4 4 3 4 5 5 6 5 6 6 7 7 7 7 7 8 8 9 8
4 3 3 2 1 0 1 0 0 1 1 1 3 3 3 3 3 3 3 3 4 4 4 4 4 5 5 5 5 6 6 6 6 6 7 8 8 8 8 9 9 10 10
5 4 2 2 2 1 0 1 1 1 1 2 3 4 4 5 4 4 3 4 5 4 5 5 5 6 6 5 6 7 7 7 8 8 8 8 9 9 10 10 10 11 11
5 5 3 2 2 1 1 1 2 1 1 2 2 3 4 4 4 5 4 5 5 5 5 5 6 6 7 6 6 7 8 8 8 8 9 9 9 10 11 11 12 12 13
6 5 4 4 2 2 1 1 1 2 2 2 3 3 3 4 5 5 5 6 6 6 6 6 6 6 7 7 7 7 8 8 9 9 9 10 10 11 11 12 12 12 14
7 6 5 4 4 3 2 2 2 3 3 3 3 3 4 4 5 6 6 7 7 8 8 8 7 7 7 7 8 8 8 9 10 10 10 10 11 12 12 12 13 13 13
7 6 6 5 4 4 3 3 3 3 3 3 4 4 4 5 6 6 7 7 7 8 8 8 8 8 8 7 8 8 9 9 10 10 11 12 12 13 13 13 13 14 14
8 8 7 6 5 4 4 4 3 3 3 4 5 5 6 6 6 7 7 8 9 9 9 9 9 9 9 9 9 9 10 10 10 10 11 11 13 13 14 14 14 15 15
9 9 8 8 7 6 5 4 4 4 4 5 6 6 6 6 7 7 8 8 10 10 10 11 11 10 11 11 10 10 11 11 12 12 12 12 13 14 14 15 15 15 16
10 9 9 8 8 7 6 5 5 5 6 7 7 7 7 8 8 8 9 10 10 11 11 11 12 13 13 13 12 12 11 12 12 13 13 14 14 14 15 15 16 16 17
10 10 10 9 9 9 7 7 7 7 7 8 8 8 9 9 9 9 9 11 11 11 12 12 13 13 14 14 13 13 13 13 13 14 14 14 15 16 16 16 17 17 18
10 10 10 10 10 10 9 8 8 8 8 9 9 10 10 10 10 10 10 11 12 11 11 11 11 12 13 14 14 14 14 14 14 15 15 15 16 16 17 17 18 19 20
10 10 11 10 10 10 9 9 9 9 10 10 11 11 11 11 11 11 11 12 12 12 11 11 11 12 13 13 14 14 14 14 14 15 16 16 17 17 17 18 19 20 20
10 10 11 11 11 10 10 10 10 10 11 11 11 12 12 12 12 12 12 12 11 11 12 12 13 12 13 14 14 15 15 15 15 16 17 17 18 18 18 19 19 20 21
11 11 11 11 11 11 11 11 11 12 12 12 12 12 12 12 11 10 11 12 12 12 12 13 14 14 14 15 15 15 16 16 17 17 18 19 19 20 19 20 20 20 21
11 11 11 11 11 12 12 12 12 13 13 12 12 12 12 12 12 12 12 12 13 13 14 14 14 14 15 16 16 17 18 18 18 18 19 19 20 21 21 21 22 22 22
12 12 12 12 12 12 13 13 13 13 13 13 13 13 13 13 13 14 14 14 14 14 14 15 15 15 16 17 17 18 19 20 20 20 21 21 22 21 22 22 23 23 23
12 13 13 13 13 13 13 14 14 14 14 14 14 14 14 14 14 15 15 15 15 15 15 16 16 16 17 18 19 20 20 20 21 22 22 22 22 22 22 22 22 22 22
14 14 14 14 14 14 15 15 15 15 15 15 15 15 14 15 15 16 16 16 16 17 17 17 18 18 19 20 20 20 21 21 22 22 22 22 22 22 22 22 22 23 23
15 15 16 15 15 16 16 16 17 17 17 16 16 16 15 16 16 17 17 17 17 18 18 19 20 20 21 22 22 22 22 23 23 22 22 22 22 22 22 22 23 23 24
17 17 17 17 17 17 17 17 17 17 17 17 17 17 17 18 18 18 18 18 18 19 19 20 20 20 21 21 22 22 22 22 21 21 21 21 20 21 22 23 23 24 25
17 18 18 19 19 19 19 19 18 18 17 17 18 19 19 19 19 19 19 20 19 20 20 21 21 21 21 22 22 21 21 21 21 21 21 21 21 22 24 24 25 25 25
18 19 20 20 20 20 20 20 19 19 18 18 19 19 20 20 20 20 21 21 21 20 21 21 21 21 21 21 20 20 21 21 21 21 22 23 24 24 24 24 25 25 26
20 20 21 21 21 21 21 21 20 19 19 19 20 20 21 21 21 21 22 22 21 21 22 22 21 21 21 22 22 22 22 22 22 22 22 23 24 25 25 26 26 27 27
21 22 22 22 22 22 22 21 20 20 20 20 21 21 21 21 21 21 21 22 22 22 22 22 22 22 22 22 22 23 23 23 23 23 24 24 25 25 26 26 27 28 28
Wind_Direction
64 83 88 119 131 143 152 153 163 192 206 191 161 168 172 199 208 219 250 264 250 250 259 258 244 243 241 244 244 245 242 245 240 236 233 236 239 243 248 245 246 251 252
62 74 86 109 128 138 145 173 204 204 214 208 214 220 218 227 240 240 247 256 255 251 253 254 244 244 249 251 249 248 250 251 247 241 242 239 241 247 246 249 250 251 253
65 72 81 85 102 176 173 181 203 216 232 229 229 240 247 243 246 236 246 251 252 253 253 249 246 248 250 253 249 251 251 248 248 246 245 243 246 249 247 249 253 253 254
59 53 54 65 67 62 109 223 253 284 297 257 252 251 249 246 241 237 244 249 256 256 255 254 253 254 249 249 249 251 249 246 248 249 246 247 250 251 250 254 254 255 257
41 39 42 33 14 10 341 285 268 280 312 287 271 260 251 243 243 242 243 256 262 258 258 258 258 257 256 249 253 255 252 248 249 248 249 253 254 257 258 257 257 258 260
35 32 28 18 4 342 315 300 299 313 315 298 283 271 263 253 251 250 252 257 259 259 257 261 264 260 257 255 257 258 256 249 249 248 250 253 256 260 262 260 261 262 264
23 20 21 17 10 354 336 319 316 311 307 299 290 283 278 271 258 255 256 259 258 260 260 261 263 263 261 256 256 259 260 256 253 251 252 256 258 260 262 260 260 263 267
25 23 16 14 9 357 345 334 330 326 308 299 295 293 288 276 272 264 263 265 266 267 267 262 259 265 260 259 261 262 260 258 256 257 258 260 264 263 262 262 262 263 266
24 19 17 13 9 6 5 358 351 338 315 305 304 301 293 278 278 275 272 273 273 275 271 265 263 264 262 261 262 266 264 262 261 263 265 265 265 266 264 266 266 266 264
27 22 21 16 9 4 358 355 342 330 317 309 306 303 298 292 288 282 280 275 273 274 274 270 266 266 267 265 265 268 268 266 265 264 264 267 270 269 269 268 270 271 269
26 22 19 17 12 3 354 344 335 323 318 311 305 301 299 295 288 281 277 276 276 275 275 270 267 265 266 263 264 265 266 267 267 266 266 267 268 271 272 270 269 271 271
23 20 16 14 8 2 355 345 338 326 317 312 307 303 297 291 286 285 284 281 279 276 275 272 269 266 265 262 262 263 265 267 269 269 269 270 270 270 269 271 271 271 272
17 14 10 7 3 357 352 346 339 333 324 318 312 307 301 295 292 288 288 286 283 277 274 275 271 269 269 269 264 265 268 267 270 271 269 271 273 271 270 271 272 273 273
9 6 3 359 357 355 350 345 342 338 330 321 315 310 305 301 300 295 290 289 287 283 280 275 273 273 270 268 267 266 270 270 270 270 271 273 274 273 275 274 274 275 275
359 356 355 353 351 348 344 341 340 336 330 322 316 313 309 309 303 298 295 293 291 285 281 277 273 274 272 270 273 272 271 270 270 270 272 274 273 276 278 277 275 276 277
348 348 347 346 347 346 342 338 336 333 329 325 320 317 313 313 309 307 302 299 294 288 283 280 276 273 273 274 275 275 276 276 277 277 278 276 275 276 277 278 279 280 279
338 337 337 338 340 340 337 336 334 333 332 332 332 325 319 312 310 307 302 299 296 292 287 283 280 277 281 280 277 277 281 282 280 281 282 280 277 278 279 278 279 280 280
330 332 331 330 329 330 330 329 327 326 325 327 326 322 320 316 313 309 304 299 298 295 290 287 285 283 285 283 281 281 284 281 282 283 282 282 281 280 281 280 279 280 279
322 326 326 325 325 325 325 324 323 322 321 321 320 316 313 311 310 309 305 301 298 295 292 288 285 284 286 287 286 285 287 284 283 284 282 283 283 282 282 282 281 281 282
316 318 319 319 319 319 319 319 318 317 317 318 316 313 311 309 308 308 305 302 299 296 292 289 287 286 284 286 287 286 287 286 285 285 284 283 283 283 283 283 283 282 282
312 313 314 313 314 315 315 316 316 314 313 313 314 312 309 307 308 307 306 303 300 296 294 291 289 288 287 287 287 288 288 287 285 285 285 283 281 281 282 282 283 282 282
309 309 309 309 309 309 310 311 311 311 311 310 310 310 308 306 305 306 306 303 300 297 296 294 291 289 289 289 288 288 288 288 287 287 285 283 283 285 285 284 283 284 283
308 309 308 307 307 306 306 306 307 307 308 309 309 309 307 305 304 303 304 303 301 299 298 295 291 292 290 290 288 288 289 289 289 288 284 283 284 285 285 287 286 285 285
305 308 308 307 307 306 305 303 306 307 306 308 308 309 308 305 302 301 301 302 300 299 297 296 293 291 289 290 288 288 288 287 286 286 285 286 285 286 286 287 288 287 287
302 305 307 307 306 306 304 302 303 305 307 307 309 309 308 306 303 301 301 300 299 299 298 297 295 291 290 291 288 286 287 288 288 287 286 288 288 288 287 287 287 287 288
302 304 306 306 305 304 303 300 300 302 304 305 306 307 308 307 305 302 301 300 299 299 297 296 295 294 292 291 291 289 289 287 287 287 288 288 289 289 287 286 286 286 287
Height
5890 5889 5889 5888 5888 5888 5888 5888 5888 5888 5888 5887 5887 5887 5887 5887 5887 5887 5887 5887 5886 5886 5886 5885 5885 5885 5885 5884 5884 5884 5884 5884 5884 5884 5884 5884 5884 5885 5885 5885 5885 5885 5885
5890 5890 5889 5889 5888 5888 5888 5888 5887 5887 5887 5887 5887 5887 5887 5887 5886 5886 5886 5886 5886 5885 5885 5884 5884 5884 5884 5883 5883 5883 5883 5882 5882 5882 5882 5883 5883 5883 5883 5883 5883 5883 5883
5891 5890 5890 5889 5888 5888 5888 5887 5887 5887 5887 5886 5886 5886 5886 5886 5885 5885 5885 5885 5885 5884 5884 5883 5883 5883 5882 5882 5882 5882 5881 5881 5881 5881 5881 5881 5881 5881 5881 5881 5881 5881 5881
5891 5890 5890 5889 5889 5888 5888 5887 5887 5887 5886 5886 5886 5885 5885 5885 5884 5884 5884 5884 5884 5883 5883 5882 5882 5881 5881 5881 5880 5880 5880 5880 5880 5879 5879 5879 5879 5879 5879 5879 5879 5879 5879
5892 5891 5890 5890 5889 5888 5888 5887 5887 5886 5886 5885 5885 5884 5884 5884 5883 5883 5883 5883 5882 5882 5881 5881 5880 5880 5879 5879 5879 5879 5878 5878 5878 5878 5877 5877 5877 5877 5877 5877 5876 5876 5876
5893 5891 5890 5890 5889 5888 5887 5887 5886 5886 5885 5885 5884 5884 5883 5883 5882 5882 5882 5881 5881 5880 5880 5879 5878 5878 5878 5877 5877 5877 5876 5876 5876 5875 5875 5875 5875 5875 5874 5874 5873 5873 5873
5893 5892 5891 5889 5889 5888 5887 5886 5885 5885 5884 5884 5883 5883 5882 5881 5881 5880 5880 5879 5879 5878 5878 5877 5877 5876 5876 5876 5875 5875 5874 5874 5874 5873 5873 5873 5872 5872 5871 5871 5870 5870 5869
5893 5892 5891 5889 5888 5887 5886 5885 5885 5884 5884 5883 5883 5882 5881 5880 5879 5878 5878 5877 5877 5876 5875 5875 5875 5874 5874 5873 5873 5873 5872 5872 5871 5871 5870 5870 5869 5869 5868 5868 5867 5867 5866
5893 5892 5890 5889 5888 5887 5886 5885 5884 5883 5882 5882 5881 5881 5880 5879 5878 5877 5876 5875 5875 5874 5873 5872 5872 5872 5871 5871 5871 5870 5870 5869 5869 5868 5867 5867 5866 5866 5865 5864 5863 5863 5862
5894 5892 5890 5889 5887 5886 5885 5884 5883 5882 5881 5880 5879 5878 5878 5877 5876 5875 5874 5873 5872 5871 5870 5870 5869 5869 5869 5868 5868 5867 5867 5866 5866 5865 5864 5864 5863 5862 5861 5860 5860 5859 5858
5894 5892 5890 5889 5887 5886 5884 5883 5882 5881 5880 5879 5878 5877 5876 5875 5874 5873 5872 5871 5869 5868 5867 5867 5866 5866 5865 5865 5865 5864 5864 5863 5862 5862 5861 5860 5859 5858 5857 5856 5855 5855 5854
5894 5892 5890 5889 5887 5885 5884 5882 5881 5880 5878 5877 5876 5875 5873 5872 5871 5870 5869 5868 5866 5865 5864 5863 5862 5862 5862 5861 5861 5861 5860 5859 5859 5858 5857 5856 5855 5854 5853 5852 5851 5850 5849
5894 5892 5890 5888 5886 5885 5883 5881 5880 5878 5877 5875 5874 5872 5871 5870 5868 5867 5866 5865 5864 5862 5861 5860 5859 5859 5858 5858 5857 5857 5856 5855 5855 5854 5853 5852 5851 5849 5848 5847 5846 5845 5844
5894 5892 5890 5888 5886 5884 5882 5880 5879 5877 5875 5873 5872 5870 5868 5867 5865 5864 5863 5862 5860 5859 5858 5857 5856 5855 5854 5854 5853 5852 5852 5851 5850 5849 5848 5847 5846 5845 5844 5842 5841 5840 5839
5893 5891 5889 5887 5885 5883 5881 5879 5878 5876 5874 5871 5869 5868 5866 5864 5862 5861 5860 5859 5857 5856 5855 5854 5853 5852 5851 5850 5849 5848 5848 5847 5846 5845 5844 5843 5841 5840 5839 5837 5836 5835 5833
5892 5890 5888 5885 5883 5881 5879 5878 5876 5874 5871 5869 5867 5865 5863 5861 5860 5858 5856 5855 5854 5853 5852 5851 5849 5848 5847 5846 5845 5844 5843 5842 5841 5840 5839 5837 5836 5835 5833 5832 5831 5829 5828
5891 5889 5886 5884 5882 5880 5878 5876 5874 5871 5869 5867 5865 5863 5861 5859 5857 5855 5853 5852 5850 5849 5848 5847 5846 5844 5843 5842 5840 5839 5838 5837 5836 5835 5833 5832 5830 5829 5827 5826 5825 5823 5821
5889 5887 5884 5882 5880 5878 5876 5873 5871 5869 5867 5864 5862 5860 5858 5856 5854 5852 5850 5848 5846 5845 5843 5842 5841 5840 5839 5838 5836 5834 5833 5832 5830 5829 5827 5826 5824 5822 5821 5820 5818 5816 5815
5887 5885 5882 5880 5878 5875 5873 5871 5868 5866 5864 5861 5859 5857 5855 5853 5851 5848 5846 5844 5843 5841 5839 5838 5837 5835 5834 5832 5831 5829 5827 5826 5824 5823 5821 5819 5817 5816 5814 5813 5811 5810 5808
5884 5882 5879 5877 5875 5872 5870 5868 5865 5863 5860 5858 5856 5853 5851 5849 5847 5845 5842 5840 5838 5837 5835 5833 5831 5830 5828 5827 5826 5824 5821 5820 5818 5816 5815 5813 5811 5810 5808 5807 5805 5803 5801
5881 5878 5876 5874 5871 5869 5866 5864 5862 5859 5857 5854 5852 5850 5848 5845 5843 5841 5838 5836 5834 5832 5829 5828 5826 5824 5823 5821 5819 5817 5815 5814 5812 5810 5808 5806 5805 5803 5802 5800 5798 5797 5795
5877 5874 5872 5870 5867 5865 5862 5860 5858 5855 5853 5850 5848 5846 5843 5841 5838 5836 5833 5831 5829 5827 5825 5822 5821 5819 5817 5815 5813 5811 5809 5807 5806 5804 5802 5800 5799 5797 5796 5794 5792 5790 5788
5872 5870 5868 5865 5863 5860 5858 5855 5853 5851 5848 5846 5843 5841 5839 5836 5834 5831 5829 5826 5824 5821 5819 5817 5815 5813 5811 5809 5807 5805 5803 5801 5799 5798 5796 5794 5793 5791 5789 5787 5785 5783 5781
5868 5866 5863 5861 5858 5855 5853 5850 5848 5845 5843 5841 5838 5836 5834 5831 5828 5826 5824 5821 5818 5816 5813 5811 5809 5807 5805 5803 5801 5799 5797 5795 5793 5791 5789 5788 5786 5784 5782 5780 5777 5775 5774
5862 5860 5858 5855 5853 5850 5847 5845 5843 5840 5838 5836 5833 5831 5828 5825 5823 5820 5818 5815 5813 5810 5807 5805 5802 5800 5798 5796 5794 5792 5790 5789 5787 5785 5783 5781 5779 5776 5774 5772 5770 5768 5766
5857 5855 5852 5850 5847 5845 5842 5840 5837 5835 5833 5831 5828 5826 5823 5820 5817 5814 5812 5809 5807 5804 5801 5798 5796 5794 5791 5789 5787 5785 5783 5781 5780 5778 5776 5774 5772 5769 5767 5765 5762 5760 5757